Weather History for KLXV - November, 2011

Change the Weather History Date:

Friday, November 11, 2011

  Actual Average Record
Temperature  
Mean Temperature 31 °F -  
Max Temperature 44 °F 38 °F 59 °F (1980)
Min Temperature 18 °F 14 °F 1 °F (2000)
Degree Days  
Heating Degree Days 34 39  
Month to date heating degree days 473 402  
Since 1 July heating degree days 2425 2591  
Cooling Degree Days 0 0  
Month to date cooling degree days 0 0  
Year to date cooling degree days 0 0  
Moisture  
Dew Point -13 °F    
Average Humidity 20    
Maximum Humidity 32    
Minimum Humidity 7    
Precipitation  
Precipitation 0.00 in 0.03 in 0.22 in (1998)
Month to date precipitation 0.40 0.31  
Year to date precipitation 14.29 11.25  
Sea Level Pressure  
Sea Level Pressure 29.88 in    
Wind  
Wind Speed 6 mph (NNE)    
Max Wind Speed 15 mph    
Max Gust Speed 20 mph    
Visibility 10 miles    
Events      
T = Trace of Precipitation, MM = Missing Value Source: NWS Daily Summary

Daily Weather History Graph

Daily Weather History Graph

Search for Another Location

Airport or City:

Trip Planner

Search our weather history database for the weather conditions in past years. The results will help you decide how hot, cold, wet, or windy it might be!

Date:

Astronomy

Nov. 11, 2011 Rise Set
Actual Time 6:43 AM MST 4:54 PM MST
Civil Twilight 6:15 AM MST 5:22 PM MST
Nautical Twilight 5:43 AM MST 5:54 PM MST
Astronomical Twilight 5:11 AM MST 6:26 PM MST
Moon 5:25 PM MST (11/11) 7:34 AM MST (11/11)
Length of Visible Light 11h 06m
Length of Day
10h 10m
Full, 99% of the Moon is Illuminated
Nov 11
Full
Nov 18
Last Quarter
Nov 24
New
Dec 2
First Quarter
Dec 10
Full

Hourly Weather History & Observations

Time (MST) Temp. Windchill Dew Point Humidity Pressure Visibility Wind Dir Wind Speed Gust Speed Precip Events Conditions
12:53 AM 25.0 °F 20.7 °F -18.9 °F 14% 30.07 in 10.0 mi NE 3.5 mph - N/A   Clear
1:53 AM 26.1 °F 19.4 °F -18.9 °F 13% 30.04 in 10.0 mi North 5.8 mph - N/A   Clear
2:53 AM 27.0 °F 19.5 °F -20.0 °F 12% 30.04 in 10.0 mi NW 6.9 mph - N/A   Clear
3:53 AM 23.0 °F - -18.9 °F 15% 30.06 in 10.0 mi Calm Calm - N/A   Clear
4:53 AM 25.0 °F 19.3 °F -20.0 °F 13% 30.06 in 10.0 mi North 4.6 mph - N/A   Clear
5:53 AM 19.0 °F - -14.1 °F 22% 30.10 in 10.0 mi Calm Calm - N/A   Clear
6:53 AM 24.1 °F - -20.9 °F 13% 30.08 in 10.0 mi Calm Calm - N/A   Clear
7:53 AM 28.0 °F - -25.1 °F 9% 30.06 in 10.0 mi Calm Calm - N/A   Clear
8:53 AM 33.1 °F 27.7 °F -18.0 °F 10% 29.99 in 10.0 mi North 5.8 mph - N/A   Clear
9:53 AM 37.0 °F 29.3 °F -18.0 °F 9% 29.92 in 10.0 mi North 11.5 mph - N/A   Clear
10:53 AM 39.9 °F 32.9 °F -20.0 °F 7% 29.90 in 10.0 mi North 11.5 mph - N/A   Clear
11:53 AM 43.0 °F 38.2 °F -18.0 °F 7% 29.80 in 10.0 mi North 8.1 mph - N/A   Clear
12:53 PM 43.0 °F 36.4 °F -15.0 °F 8% 29.81 in 10.0 mi NNE 12.7 mph - N/A   Clear
1:53 PM 43.0 °F 40.3 °F -11.0 °F 10% 29.76 in 10.0 mi North 4.6 mph - N/A   Clear
2:53 PM 42.1 °F 39.2 °F -9.9 °F 11% 29.74 in 10.0 mi NNE 4.6 mph - N/A   Scattered Clouds
3:53 PM 39.9 °F 36.7 °F -9.0 °F 12% 29.77 in 10.0 mi NNE 4.6 mph - N/A   Partly Cloudy
4:53 PM 37.0 °F 33.3 °F -9.9 °F 13% 29.77 in 10.0 mi North 4.6 mph - N/A   Clear
5:53 PM 30.9 °F 26.2 °F -8.0 °F 18% 29.84 in 10.0 mi ENE 4.6 mph - N/A   Clear
6:53 PM 25.0 °F 20.7 °F -5.1 °F 27% 29.84 in 10.0 mi ENE 3.5 mph - N/A   Clear
7:53 PM 25.0 °F 18.1 °F -4.0 °F 28% 29.80 in 10.0 mi ENE 5.8 mph - N/A   Clear
8:53 PM 26.1 °F 18.4 °F -0.0 °F 32% 29.75 in 10.0 mi NNE 6.9 mph - N/A   Clear
9:53 PM 26.1 °F 17.6 °F -5.1 °F 26% 29.70 in 10.0 mi NE 8.1 mph - N/A   Clear
10:53 PM 26.1 °F 20.5 °F -4.0 °F 27% 29.67 in 10.0 mi Variable 4.6 mph - N/A   Clear
11:53 PM 26.1 °F 16.8 °F -2.9 °F 28% 29.62 in 10.0 mi NNE 9.2 mph - N/A   Clear